Flag for U.S.A. Weather past 2 weeks in Atlanta, Georgia, U.S.A.

66 °F

Light rain. Fog.

Feels Like: 66 °F
Forecast: 61 / 70 °F
Wind: 7 mph from Northeast

Location: Fulton County Airport-Brown Field

Current Time: Oct 4, 2015 at 8:22:05 PM

Latest Report: Oct 4, 2015 at 7:53 PM

Visibility: 6 mi

Pressure: 29.83 "Hg

Humidity: 90%

Dew point: 63 °F

Location of AtlantaLocation

Historic Weather in Atlanta — Graph


Atlanta temperature yesterday

Maximum temperature yesterday: 65 °F (at 2:56 PM)
Minimum temperature yesterday: 58 °F (at 5:53 AM)
Average temperature yesterday: 62 °F

Past Weeks' High & Low Weather Summary

High88 °F (Sep 20, 3:53 PM)97% (Sep 28, 7:53 AM)30.16 "Hg (Sep 28, 7:53 AM)
Low58 °F (Oct 3, 5:53 AM)43% (Sep 24, 12:53 PM)29.65 "Hg (Oct 3, 5:53 PM)
Average69 °F81%29.93 "Hg
* Reported Sep 19 6:53 PM — Oct 4 6:53 PM, Atlanta, Weather by CustomWeather, © 2015

Note: Actual official high and low records may vary slightly from our data, if they occured in-between our weather recording intervals... More about our weather records


Atlanta weather history for previous 24 hours

Time TempWeatherWind HumidityBarometerVisibility
6:53 PM
Sun, Oct 4
67 °FMostly cloudy.6 mph87%29.82 "Hg8 mi
5:53 PM67 °FMostly cloudy.9 mph87%29.80 "Hg10 mi
4:53 PM67 °FMostly cloudy.10 mph85%29.80 "Hg10 mi
3:53 PM67 °FMore clouds than sun.6 mph87%29.79 "Hg10 mi
2:53 PM70 °FOvercast.10 mph71%29.78 "Hg10 mi
2:01 PM71 °FMore clouds than sun.9 mph71%29.78 "Hg10 mi
12:53 PM68 °FOvercast.13 mph76%29.79 "Hg10 mi
11:53 AM68 °FOvercast.12 mph78%29.78 "Hg10 mi
10:53 AM67 °FOvercast.12 mph81%29.76 "Hg10 mi
9:53 AM67 °FMostly cloudy.5 mph87%29.76 "Hg10 mi
8:53 AM66 °FLight rain. Fog.3 mph90%29.74 "Hg3 mi
7:53 AM66 °FOvercast.3 mph87%29.69 "Hg10 mi
6:53 AM65 °FOvercast.3 mph91%29.69 "Hg10 mi
5:53 AM66 °FPassing clouds.5 mph87%29.67 "Hg10 mi
4:53 AM65 °FMostly cloudy.8 mph91%29.67 "Hg10 mi
3:53 AM65 °FLight rain. Mostly cloudy.10 mph91%29.69 "Hg10 mi
2:53 AM64 °FLight rain. Overcast.No wind90%29.72 "Hg10 mi
1:53 AM63 °FOvercast.8 mph90%29.70 "Hg10 mi
1:03 AM62 °FOvercast.6 mph90%29.70 "Hg10 mi
12:02 AM61 °FFog.5 mph93%29.73 "Hg6 mi
10:53 PM
Sat, Oct 3
62 °FOvercast.3 mph93%29.70 "Hg9 mi
9:53 PM62 °FOvercast.3 mph93%29.69 "Hg10 mi
8:53 PM62 °FLight rain. Overcast.No wind90%29.69 "Hg10 mi
Weather by CustomWeather, © 2015

See weather overviewHow to use our weather pages